Location: Waning Moon II Observatory
(30.3730°N, 89.7620°W)
Time: 10:14:08
(UTC-05:00)

Daily predictions for brighter satellites

Satellite Brightness Start Highest point End
(mag) Time Altitude Azimuth Time Altitude Azimuth Time Altitude Azimuth
Cosmos 2297 3.7 19:34:04 10° SSW 19:39:44 74° ESE 19:45:27 10° NNE
Cosmos 1934 Rocket 4.2 19:37:11 10° S 19:43:19 78° W 19:49:24 10° N
METEOR-M 4.2 19:39:09 10° SSE 19:44:29 88° E 19:49:51 10° NNW
H-2A R/B 4.0 19:42:15 10° SE 19:45:23 23° ENE 19:48:32 10° NNE
Cosmos 372 Rocket 4.0 19:40:52 10° S 19:45:51 57° ESE 19:50:54 10° NNE
Okean 3 Rocket 3.9 19:43:34 10° N 19:47:49 46° E 19:52:04 10° SSE
SJ-6B 2.7 19:46:11 10° SSE 19:49:51 60° ENE 19:53:32 10° N
Abrixas 3.4 19:51:12 10° NNW 19:53:45 30° NE 19:55:44 14° E
COSMOS 2487 3.8 19:51:27 10° NNE 19:54:16 22° ENE 19:56:40 12° ESE
Delta 2 Rocket 4.2 19:49:33 10° WNW 19:54:35 56° SSW 19:58:59 10° SE
Cosmos 2082 Rocket 2.9 19:51:21 10° N 19:56:27 33° ENE 20:01:29 10° SE
USA 215 4.2 19:51:16 10° ENE 19:56:27 25° ESE 20:01:38 10° S
Cosmos-2242 3.7 19:54:33 10° SSE 19:58:20 32° E 20:02:06 10° NNE
FengYun 1-2 T 4.4 19:53:10 10° SSE 19:58:34 56° ENE 20:04:03 10° N
Cosmos 1818 3.8 19:54:03 10° NNW 19:59:21 53° ENE 20:04:36 10° SE
Tiangong 1 2.3 19:57:57 10° WNW 20:00:40 34° SW 20:03:20 10° SSE
BREEZE-M DEB (TANK) 2.5 19:59:07 10° WSW 20:01:35 68° NNW 20:07:40 10° NE
ALOS 2.2 20:00:50 10° SSE 20:05:29 77° ENE 20:10:10 10° N
Cosmos 1766 Rocket 4.3 20:02:47 10° NNE 20:06:50 33° E 20:10:51 10° SE
Cosmos 1271 Rocket 3.1 20:05:51 10° SSE 20:09:39 45° E 20:13:30 10° NNE
GP-B 3.7 20:06:56 10° SSE 20:10:57 35° E 20:14:58 10° NNE
Gblst 52 Del rocket 4.3 20:05:33 10° SSW 20:11:53 67° SE 20:17:33 10° NE
Spot 2 Rocket 3.6 20:09:00 10° SSE 20:13:57 53° ENE 20:18:55 10° N
Meteor 1-4 Rocket 3.4 20:11:27 10° SSW 20:14:49 50° W 20:18:12 10° N
Cosmos 1674 3.1 20:15:09 10° N 20:18:45 40° E 20:21:08 19° SE
Cosmos 1758 4.2 20:16:07 10° SSW 20:19:58 51° W 20:23:52 10° N
PSLV R/B 3.1 20:18:21 10° WSW 20:21:29 75° NNW 20:23:16 23° NE
Resurs 01 Rocket 1.5 20:17:52 10° SSE 20:22:14 71° ENE 20:26:39 10° N
CZ-4C R/B 2.9 20:21:22 10° SSE 20:25:30 26° ESE 20:26:26 24° E
Cosmos 1953 3.4 20:21:36 10° SSW 20:25:31 48° W 20:29:27 10° N
Delta 128 3.7 20:22:58 10° W 20:27:34 60° S 20:29:36 30° ESE
GPS 2-05 Rocket1 4.1 20:28:15 10° WNW 20:31:30 33° N 20:32:57 24° NE
Envisat 3.9 20:31:29 27° E 20:32:18 28° ENE 20:36:35 10° NNE
OAO 2 Rocket 3.3 20:27:55 10° WSW 20:33:05 88° NNW 20:36:08 26° ENE
SeaSat 1 2.3 20:32:45 17° SSE 20:36:32 81° ENE 20:41:29 10° NNW
Delta 168 3.4 20:33:45 10° WSW 20:37:46 36° S 20:38:29 32° SSE
Cosmos 1743 Rocket 4.3 20:33:47 10° NNE 20:37:42 33° ENE 20:37:42 33° ENE
Cosmos 2100 Rocket 3.9 20:31:32 10° S 20:37:50 80° E 20:44:12 10° N
Cosmos 2369 Rocket 3.3 20:35:16 10° SSE 20:42:51 21° ENE 20:45:05 10° NE
Cosmos 1939 Rocket 4.5 20:41:38 21° NE 20:41:38 21° NE 20:43:44 10° NNE
CZ-2D R/B 3.4 20:44:11 20° S 20:46:46 74° W 20:50:39 10° NNW
Geosat 4.2 20:45:10 10° NNE 20:50:10 70° WNW 20:55:08 10° SSW
Lacrosse 5 rocket 2.2 20:47:12 10° NNW 20:50:09 32° NNE 20:50:09 32° NNE
Cosmos 1048 Rocket 4.3 20:47:34 10° NNW 20:52:36 62° WSW 20:56:51 15° S
Helios 1B rocket 2.6 20:48:31 10° N 20:52:38 73° WNW 20:56:43 10° SSW
Resurs 1-3 4.3 20:50:55 10° S 20:55:10 52° W 20:59:28 10° NNW
Cosmos 1408 Rocket 4.1 20:52:18 10° NNW 20:56:42 59° W 21:00:28 14° S
Cosmos 1833 Rocket 2.8 20:52:23 10° NNW 20:57:59 74° WSW 21:01:19 25° S
Cosmos 1802 Rocket 4.0 20:56:51 10° S 21:02:57 80° W 21:09:09 10° N
Cosmos 1842 Rocket 3.5 21:05:33 50° SSW 21:06:42 84° W 21:11:06 10° N
Helios 1A 3.3 21:12:42 57° SW 21:13:06 60° WSW 21:17:14 10° NNW
Aurora 2 Rocket 3.6 21:15:31 10° W 21:22:38 49° S 21:22:41 49° S
Cosmos 2251 Rocket 4.0 21:32:23 10° NNW 21:36:35 57° NNW 21:36:35 57° NNW
USA 215 3.5 21:33:10 10° NE 21:39:38 67° NW 21:46:04 10° SW
Cosmos 2082 Rocket 4.1 21:35:45 10° NW 21:40:16 25° WSW 21:43:35 15° SW
CZ-4C R/B 3.9 22:09:10 10° WSW 22:17:58 13° N 22:18:44 10° N
Cosmos 2369 Rocket 4.0 22:19:24 10° WSW 22:24:06 27° WNW 22:28:48 10° N
CZ-3 Stage 3 4.1 22:35:49 10° WNW 22:46:33 38° W 22:46:33 38° W
